Regional Weather Roundup
Issued by NWS

Home | Current Version | Previous Version | Graphics & Text | Print | Product List | Glossary On
Versions: 1 2 3 4 5 6 7 8 9 10 11 12 13 14 15 16 17 18 19 20 21 22 23 24 25 26 27 28 29 30 31 32 33 34 35 36 37 38 39 40 41 42 43 44 45 46 47 48 49 50
000
ASUS43 KDMX 260201
RWRIA

WEATHER ROUNDUP FOR IOWA
NATIONAL WEATHER SERVICE DES MOINES IA
900 PM CDT WED APR 25 2018

NOTE: "FAIR" INDICATES FEW OR NO CLOUDS BELOW 12,000 FEET WITH NO
SIGNIFICANT WEATHER AND/OR OBSTRUCTIONS TO VISIBILITY.

* - THESE STATIONS ARE NOT NWS STATIONS...THUS NOT UNDER NWS
QUALITY CONTROL.  THEY ALSO DO NOT REPORT WEATHER SUCH
AS PRECIPITATION OR FOG.

IAZ001>003-012>014-020>022-031>034-043>046-260300-
   NORTHWEST IOWA

CITY           SKY/WX    TMP DP  RH WIND       PRES   REMARKS
CARROLL *      PTCLDY    50  28  43 E3        30.01F HAZE
CHEROKEE *     CLEAR     50  30  47 CALM      30.01S
DENISON *      CLEAR     52  27  37 E3        30.03S
LE MARS *      CLEAR     50  28  43 CALM      30.01F
ORANGE CITY *  CLEAR     54  28  37 CALM      30.01F
SHELDON *      MOCLDY    50  27  40 SW3       29.99F
SIOUX CITY     CLEAR     54  31  41 SW3       30.02S
SPENCER        CLEAR     52  32  46 E3        30.01F
STORM LAKE *   CLEAR     50  27  40 CALM      30.02R
$$

IAZ055>058-069>071-079>083-090>094-260300-
   SOUTHWEST IOWA

CITY           SKY/WX    TMP DP  RH WIND       PRES   REMARKS
ATLANTIC *     CLEAR     50  36  57 CALM      30.02R
AUDUBON *      CLEAR     45  28  53 CALM      30.03S
CLARINDA *     CLEAR     46  39  76 SW5       30.06S
COUNCIL BLFS * CLEAR     55  34  44 W6        30.02F
CRESTON *      CLEAR     52  32  46 SW5       30.03S
HARLAN  *      CLEAR     50  27  40 CALM      30.05S
LAMONI         PTCLDY    48  33  56 W7        30.02S
RED OAK *      CLEAR     48  36  61 SW6       30.04R
SHENANDOAH *   CLEAR     46  41  81 SW8       30.05S
$$

IAZ047>049-059>061-072>074-084-260300-
   CENTRAL IOWA

CITY           SKY/WX    TMP DP  RH WIND       PRES   REMARKS
AMES           CLEAR     53  33  46 N9        30.01S
ANKENY *       CLEAR     54  30  40 N5        30.02S
BOONE *        CLEAR     52  34  50 N8        30.01S
CHARITON *     CLEAR     54  28  37 SW5       30.01R
DES MOINES     CLEAR     59  26  28 N6        30.01S
GRINNELL*      CLEAR     52  27  38 N7        30.02S
KNOXVILLE *    CLEAR     57  25  28 N3        29.99S
MARSHALLTOWN   CLEAR     50  31  48 N8        30.01R
NEWTON *       CLEAR     55  27  33 N7        30.01S
PELLA *        CLEAR     55  24  30 CALM      30.01S
$$

IAZ004>006-015-016-023>025-035-036-260300-
   NORTH CENTRAL IOWA

CITY           SKY/WX    TMP DP  RH WIND       PRES   REMARKS
ALGONA *       CLEAR     50  34  53 NE3       30.03S
CLARION *      PTCLDY    48  37  66 N6        30.02F
ESTHERVILLE    CLEAR     50  35  56 CALM      30.01F
FORT DODGE *   CLEAR     48  35  60 NE3       30.02F
MASON CITY     CLEAR     48  36  63 NW6       30.03S
FOREST CITY *  FAIR      45  36  70 CALM      30.03S
WEBSTER CITY * CLEAR     50  34  53 NE5       30.00S
IOWA FALLS *   FAIR      50  36  58 N5        30.03S
$$

IAZ007>011-017>019-026>030-037>042-050>054-066-260300-
   NORTHEAST IOWA

CITY           SKY/WX    TMP DP  RH WIND       PRES   REMARKS
CEDAR RAPIDS   FAIR      54  28  36 N6        29.99S
CHARLES CITY * FAIR      52  32  46 N5        30.02S
CLINTON *      FAIR      54  30  40 N6        30.00S
DECORAH *      FAIR      54  30  40 NW3       30.00S
DUBUQUE        FAIR      50  28  42 NW6       30.00S
MONTICELLO *   FAIR      54  28  37 CALM      30.00S
OELWEIN *      FAIR      50  32  50 NW7       30.01S
WATERLOO       FAIR      49  31  49 NW3       30.01S
$$

IAZ064-065-067-068-078-260300-
   EAST CENTRAL IOWA

CITY           SKY/WX    TMP DP  RH WIND       PRES   REMARKS
DAVENPORT      FAIR      52  27  38 NE6       30.01S
IOWA CITY      FAIR      58  28  32 NW5       30.01R
MT. PLEASANT * CLOUDY    55  28  35 CALM      29.99S
MUSCATINE *    FAIR      52  30  43 N6        30.00R
QUAD CITIES    FAIR      58  29  33 CALM      29.98S
$$

IAZ062-063-075>077-085>089-095>099-260300-
   SOUTHEAST IOWA

CITY           SKY/WX    TMP DP  RH WIND       PRES   REMARKS
BURLINGTON     CLOUDY    52  34  50 SW3       29.98S
FAIRFIELD *    CLEAR     52  30  43 CALM      29.99S
FORT MADISON * PTCLDY    55  36  47 CALM      30.00S
KEOKUK *       MOCLDY    52  39  62 CALM      29.99S
OSKALOOSA *    FAIR      52  24  33 N5        30.00S
CENTERVILLE *  FAIR      54  28  37 CALM      30.02S
OTTUMWA        CLEAR     56  27  32 W6        29.99S
WASHINGTON *   CLEAR     54  28  37 N3        30.00S
$$

ABBREVIATIONS USED IN REMARKS
   TC - TEMPERATURES IN CELSIUS
  WCI - WIND CHILL INDEX
   HX - HEAT INDEX
  VSB - VISIBILITY
$$




USA.gov is the U.S. government's official web portal to all federal, state and local government web resources and services.